TimeEST,TemperatureF,Dew PointF,Humidity,Sea Level PressureIn,VisibilityMPH,Wind Direction,Wind SpeedMPH,Gust SpeedMPH,PrecipitationIn,Events,Conditions,WindDirDegrees,DateUTC
12:15 AM,30.2,26.6,86,30.03,7.0,East,3.5,-,N/A,,Overcast,80,2013-02-08 05:15:00
12:35 AM,30.2,26.6,86,30.03,7.0,ENE,3.5,-,N/A,Snow,Light Snow,60,2013-02-08 05:35:00
12:55 AM,30.2,26.6,86,30.02,7.0,East,3.5,-,N/A,,Overcast,80,2013-02-08 05:55:00
1:15 AM,30.2,26.6,86,30.01,5.0,ENE,3.5,-,N/A,,Overcast,70,2013-02-08 06:15:00
1:35 AM,30.2,26.6,86,30.00,7.0,ENE,3.5,-,N/A,,Overcast,70,2013-02-08 06:35:00
1:55 AM,30.2,26.6,86,29.99,5.0,Calm,Calm,-,N/A,,Overcast,0,2013-02-08 06:55:00
2:15 AM,30.2,26.6,86,29.99,5.0,Calm,Calm,-,N/A,Snow,Light Snow,0,2013-02-08 07:15:00
2:35 AM,30.2,26.6,86,29.98,4.0,North,3.5,-,N/A,Snow,Light Snow,0,2013-02-08 07:35:00
2:55 AM,30.2,28.4,93,29.97,2.5,NE,3.5,-,N/A,Snow,Light Snow,40,2013-02-08 07:55:00
3:15 AM,30.2,28.4,93,29.96,2.5,Calm,Calm,-,N/A,Snow,Light Snow,0,2013-02-08 08:15:00
3:35 AM,30.2,28.4,93,29.96,2.5,NNE,4.6,-,N/A,Snow,Light Snow,20,2013-02-08 08:35:00
3:55 AM,30.2,28.4,93,29.95,2.5,Calm,Calm,-,N/A,,Overcast,0,2013-02-08 08:55:00
4:15 AM,30.2,28.4,93,29.94,2.5,NE,3.5,-,N/A,,Overcast,50,2013-02-08 09:15:00
4:55 AM,30.2,28.4,93,29.93,4.0,NNE,4.6,-,N/A,,Overcast,20,2013-02-08 09:55:00
5:15 AM,30.2,28.4,93,29.93,4.0,NNE,3.5,-,N/A,,Overcast,30,2013-02-08 10:15:00
5:35 AM,30.2,28.4,93,29.92,3.0,NNE,5.8,-,N/A,,Overcast,20,2013-02-08 10:35:00
5:55 AM,30.2,28.4,93,29.92,4.0,NNE,5.8,-,N/A,,Overcast,20,2013-02-08 10:55:00
6:15 AM,30.2,28.4,93,29.91,3.0,NNE,3.5,-,N/A,,Overcast,30,2013-02-08 11:15:00
6:35 AM,30.2,28.4,93,29.91,3.0,NNE,4.6,-,N/A,,Overcast,20,2013-02-08 11:35:00
6:55 AM,30.2,28.4,93,29.91,2.0,NNE,3.5,-,N/A,Snow,Light Snow,30,2013-02-08 11:55:00
7:15 AM,30.2,28.4,93,29.91,2.0,Calm,Calm,-,N/A,,Overcast,0,2013-02-08 12:15:00
7:35 AM,30.2,28.4,93,29.91,2.0,Calm,Calm,-,N/A,,Overcast,0,2013-02-08 12:35:00
7:55 AM,30.2,28.4,93,29.91,1.8,Calm,Calm,-,N/A,,Overcast,0,2013-02-08 12:55:00
8:15 AM,30.2,28.4,93,29.90,1.0,Calm,Calm,-,N/A,,Overcast,0,2013-02-08 13:15:00
8:35 AM,30.2,28.4,93,29.90,1.2,Calm,Calm,-,N/A,,Overcast,0,2013-02-08 13:35:00
8:55 AM,30.2,28.4,93,29.89,1.8,Calm,Calm,-,N/A,,Overcast,0,2013-02-08 13:55:00
9:15 AM,30.2,30.2,100,29.89,2.0,Calm,Calm,-,N/A,,Overcast,0,2013-02-08 14:15:00
9:35 AM,30.2,30.2,100,29.89,3.0,Calm,Calm,-,N/A,,Overcast,0,2013-02-08 14:35:00
9:55 AM,30.2,30.2,100,29.88,2.5,Calm,Calm,-,N/A,,Overcast,0,2013-02-08 14:55:00
10:15 AM,32.0,30.2,93,29.88,4.0,Calm,Calm,-,N/A,,Overcast,0,2013-02-08 15:15:00
10:35 AM,32.0,30.2,93,29.87,4.0,Calm,Calm,-,N/A,,Light Drizzle,0,2013-02-08 15:35:00
10:55 AM,32.0,30.2,93,29.87,3.0,West,3.5,-,N/A,Rain,Light Rain,280,2013-02-08 15:55:00
11:15 AM,32.0,30.2,93,29.87,4.0,West,3.5,-,N/A,Rain,Light Rain,270,2013-02-08 16:15:00
11:35 AM,32.0,30.2,93,29.87,4.0,WSW,3.5,-,N/A,Rain,Light Rain,250,2013-02-08 16:35:00
11:55 AM,32.0,32.0,100,29.86,5.0,WSW,5.8,-,N/A,,Overcast,240,2013-02-08 16:55:00
12:15 PM,32.0,32.0,100,29.86,5.0,WSW,4.6,-,N/A,,Overcast,250,2013-02-08 17:15:00
12:35 PM,33.8,32.0,93,29.84,5.0,WSW,5.8,-,N/A,,Overcast,240,2013-02-08 17:35:00
12:55 PM,33.8,32.0,93,29.84,7.0,WSW,4.6,-,N/A,,Overcast,240,2013-02-08 17:55:00
1:15 PM,35.6,33.8,93,29.83,10.0,West,8.1,16.1,N/A,,Overcast,270,2013-02-08 18:15:00
1:35 PM,37.4,32.0,81,29.84,5.0,WNW,11.5,19.6,N/A,,Light Drizzle,300,2013-02-08 18:35:00
1:55 PM,37.4,32.0,81,29.84,10.0,NW,10.4,21.9,N/A,,Overcast,310,2013-02-08 18:55:00
2:15 PM,35.6,32.0,87,29.86,10.0,NW,16.1,23.0,N/A,,Overcast,310,2013-02-08 19:15:00
2:35 PM,33.8,28.4,81,29.88,10.0,NW,17.3,28.8,N/A,,Overcast,310,2013-02-08 19:35:00
2:55 PM,32.0,26.6,80,29.89,10.0,NW,11.5,28.8,N/A,,Overcast,310,2013-02-08 19:55:00
3:15 PM,32.0,24.8,75,29.91,10.0,NW,13.8,24.2,N/A,,Overcast,320,2013-02-08 20:15:00
3:35 PM,32.0,24.8,75,29.92,10.0,WNW,11.5,23.0,N/A,,Overcast,300,2013-02-08 20:35:00
3:55 PM,32.0,24.8,75,29.92,10.0,WNW,10.4,23.0,N/A,,Overcast,300,2013-02-08 20:55:00
4:15 PM,32.0,24.8,75,29.93,10.0,NW,10.4,24.2,N/A,,Overcast,320,2013-02-08 21:15:00
4:35 PM,32.0,24.8,75,29.94,7.0,NW,9.2,25.3,N/A,,Overcast,310,2013-02-08 21:35:00
4:55 PM,30.2,24.8,80,29.94,7.0,NW,12.7,21.9,N/A,,Overcast,310,2013-02-08 21:55:00
5:15 PM,30.2,24.8,80,29.95,7.0,NW,12.7,21.9,N/A,,Overcast,310,2013-02-08 22:15:00
5:35 PM,30.2,26.6,86,29.95,7.0,NW,9.2,-,N/A,,Overcast,310,2013-02-08 22:35:00
5:55 PM,30.2,23.0,75,29.97,7.0,WNW,17.3,24.2,N/A,,Overcast,300,2013-02-08 22:55:00
6:15 PM,30.2,23.0,75,29.97,10.0,NW,12.7,23.0,N/A,,Overcast,320,2013-02-08 23:15:00
6:55 PM,30.2,21.2,69,30.00,10.0,NNW,16.1,24.2,N/A,,Overcast,330,2013-02-08 23:55:00
7:15 PM,30.2,21.2,69,30.01,10.0,NW,12.7,26.5,N/A,,Overcast,310,2013-02-09 00:15:00
7:55 PM,28.4,21.2,74,30.03,10.0,NW,10.4,-,N/A,,Overcast,320,2013-02-09 00:55:00
8:15 PM,28.4,21.2,74,30.04,10.0,NNW,8.1,17.3,N/A,,Overcast,340,2013-02-09 01:15:00
8:35 PM,28.4,21.2,74,30.05,7.0,NW,10.4,26.5,N/A,,Overcast,310,2013-02-09 01:35:00
8:55 PM,28.4,21.2,74,30.07,7.0,NW,13.8,23.0,N/A,,Overcast,320,2013-02-09 01:55:00
9:15 PM,28.4,21.2,74,30.08,7.0,WNW,10.4,24.2,N/A,,Overcast,300,2013-02-09 02:15:00
9:35 PM,26.6,21.2,80,30.08,5.0,NW,11.5,-,N/A,,Haze,310,2013-02-09 02:35:00
9:55 PM,26.6,21.2,80,30.09,7.0,NW,9.2,18.4,N/A,,Overcast,320,2013-02-09 02:55:00
10:15 PM,26.6,21.2,80,30.10,7.0,WNW,10.4,19.6,N/A,,Overcast,300,2013-02-09 03:15:00
10:35 PM,26.6,21.2,80,30.10,4.0,NW,8.1,18.4,N/A,Snow,Light Snow,320,2013-02-09 03:35:00
10:55 PM,26.6,21.2,80,30.11,7.0,NW,6.9,17.3,N/A,,Overcast,310,2013-02-09 03:55:00
11:15 PM,26.6,21.2,80,30.10,5.0,NW,12.7,21.9,N/A,,Haze,320,2013-02-09 04:15:00
11:35 PM,26.6,21.2,80,30.11,5.0,WNW,10.4,17.3,N/A,,Haze,300,2013-02-09 04:35:00
11:55 PM,26.6,21.2,80,30.12,3.0,WNW,5.8,16.1,N/A,Snow,Light Snow,300,2013-02-09 04:55:00